Temperature
20 21 22 23 23 21 21 20 20 21 21 22 21 21 21 22 23 23 24 24 25 25 25 25 24 24 24 24 23 23 22 22 22 21 21 20 20 20 19 19 19 18 18 18
21 21 22 22 22 22 22 21 21 21 21 20 20 21 21 21 22 22 23 24 24 25 25 25 25 24 24 24 23 23 22 22 21 21 21 20 20 20 19 19 18 18 18 18
19 20 22 21 21 21 21 20 21 21 21 20 19 19 20 21 21 22 23 23 24 24 24 24 24 24 24 23 23 22 22 21 21 21 20 20 20 19 19 19 18 18 18 18
17 20 21 20 20 21 21 20 19 20 19 19 19 20 21 22 22 22 23 23 23 23 24 24 24 23 23 23 22 22 22 21 21 20 20 20 19 19 19 18 18 18 18 17
15 18 19 20 20 20 20 20 19 19 18 18 19 20 20 22 22 22 23 23 23 23 23 23 23 23 23 23 22 22 22 21 21 20 20 20 19 19 19 18 18 18 18 17
15 18 19 20 20 20 20 20 19 18 18 18 19 19 19 21 22 22 22 22 23 23 23 23 23 22 22 22 22 22 21 21 21 20 20 20 19 19 18 18 18 17 17 17
15 17 17 18 19 20 20 19 19 19 18 18 18 19 20 21 21 22 22 22 22 22 22 22 22 22 22 22 22 21 21 20 20 20 19 19 19 18 18 18 17 17 17 17
14 16 17 18 18 18 18 19 19 19 19 19 20 20 20 20 21 21 21 22 22 22 22 22 22 21 21 21 21 21 20 20 19 19 19 19 18 18 18 17 17 17 17 16
14 15 16 16 17 19 19 19 19 20 20 20 19 19 19 20 20 20 21 21 21 21 21 21 21 21 21 21 20 20 20 19 19 19 18 18 18 18 17 17 17 16 16 16
13 14 15 17 18 19 19 20 20 20 20 20 19 19 19 19 19 20 20 20 20 20 20 20 20 20 20 20 19 19 19 19 18 18 18 18 17 17 17 17 16 16 16 16
13 14 15 17 17 18 19 19 19 19 20 19 19 19 19 19 19 19 19 19 19 20 19 19 19 19 19 19 19 19 19 18 18 18 17 17 17 17 17 17 16 16 16 15
14 14 14 16 17 18 18 19 19 19 19 19 19 19 18 18 19 19 19 19 19 19 19 18 18 18 18 19 18 18 18 18 17 17 16 16 16 16 16 16 15 15 15 15
16 16 17 17 17 18 18 18 18 18 18 18 18 18 18 18 18 18 18 18 18 18 18 18 18 17 17 17 17 17 17 17 17 16 16 16 15 15 15 15 15 15 15 15
16 16 16 17 17 17 17 18 18 18 18 18 18 18 17 17 17 17 17 17 17 17 17 17 17 17 16 16 16 16 16 16 16 16 15 15 15 15 14 14 14 14 14 14
16 16 16 16 17 17 17 17 17 17 17 17 17 17 17 16 16 16 16 16 16 16 16 16 15 15 15 15 15 15 15 15 15 15 15 15 14 14 14 14 14 14 14 14
15 16 16 16 16 16 17 17 16 16 16 16 16 16 16 16 15 15 15 15 15 15 15 15 15 15 15 14 14 14 14 14 14 14 14 14 14 14 14 14 14 13 13 13
15 15 15 15 16 16 16 16 16 15 15 15 15 15 15 15 14 14 14 14 14 14 14 14 14 14 14 14 14 13 13 13 14 14 14 14 13 13 13 13 13 13 13 13
15 15 15 15 15 15 15 15 15 15 15 14 14 14 14 14 14 13 13 13 13 13 13 13 13 13 13 13 13 13 13 13 13 13 13 13 13 13 13 13 12 12 12 12
15 15 15 15 15 15 15 15 15 14 14 14 14 14 13 13 13 13 12 12 12 12 13 13 12 12 12 12 12 12 12 12 12 12 12 13 13 12 12 12 12 12 12 12
14 14 14 14 14 14 14 14 14 14 14 13 13 13 13 13 12 12 12 12 12 12 12 12 12 12 12 12 12 12 12 12 12 12 12 12 12 12 12 12 12 12 12 11
13 13 13 13 13 13 13 13 13 13 13 13 13 13 12 12 12 12 12 11 11 11 12 12 11 11 11 11 11 11 11 11 11 11 11 11 11 11 11 11 11 11 11 11
12 12 13 13 13 13 13 13 13 13 13 12 12 12 12 12 12 11 11 11 11 11 11 11 11 11 11 11 11 11 11 11 11 11 11 11 11 11 11 11 11 11 11 11
12 12 12 12 12 12 12 12 12 12 12 12 12 12 12 12 11 11 11 11 11 11 11 11 11 11 10 10 10 10 10 10 10 10 10 10 10 10 10 10 10 10 10 10
12 12 12 12 12 11 11 11 11 11 12 12 11 11 11 11 11 11 11 11 11 10 10 10 10 10 10 10 10 10 10 10 10 10 10 10 10 10 10 10 10 10 10 10
11 11 11 11 11 11 11 11 11 11 11 11 11 11 11 11 11 11 10 10 10 10 10 10 10 10 10 10 10 10 9 10 9 9 9 9 9 9 9 9 9 9 10 9
11 11 11 11 11 11 11 11 11 11 11 11 10 10 10 10 10 10 10 10 10 10 10 10 10 9 9 9 9 9 9 9 9 9 9 9 9 9 9 9 9 9 9 9
10 10 10 10 10 10 10 10 10 10 10 10 10 10 10 10 10 10 10 10 10 9 9 9 9 9 9 9 9 9 9 9 9 9 9 9 9 9 9 9 9 8 8 8
Wind_Speed
5 4 4 3 4 7 6 9 9 9 8 9 8 7 6 5 4 4 3 3 4 5 5 5 5 5 6 6 7 7 8 8 7 6 6 6 6 6 6 6 6 5 5 4
1 1 3 2 3 5 5 5 6 4 7 7 4 3 3 4 5 5 4 4 4 4 5 6 6 6 6 6 6 7 8 8 6 6 6 6 6 6 6 5 5 5 5 5
3 1 2 3 5 5 4 4 7 8 8 3 2 4 5 5 5 5 5 4 3 4 5 6 7 7 7 7 6 7 7 7 6 6 6 6 6 5 6 6 5 5 5 5
4 4 5 8 3 3 5 3 3 4 4 4 4 3 2 3 4 4 4 4 4 3 2 3 4 5 5 5 7 8 7 7 7 7 7 6 6 6 6 5 5 4 5 5
5 5 4 6 1 4 5 3 3 3 2 3 3 4 3 0 2 3 3 3 3 2 2 2 4 5 5 5 6 7 7 7 7 7 7 7 7 6 5 5 5 4 4 5
5 6 8 7 3 2 4 3 3 4 5 5 4 2 3 1 1 1 1 1 2 2 3 2 2 4 6 5 5 6 7 7 7 7 8 8 7 6 5 5 5 5 4 5
5 4 6 6 4 3 6 7 3 4 5 5 4 4 3 0 1 0 1 1 3 4 3 2 2 5 5 4 5 5 4 5 6 6 7 7 6 5 5 5 4 4 4 4
5 4 7 3 3 6 6 2 3 3 4 4 3 2 2 2 1 1 2 2 3 4 2 1 2 4 3 3 3 2 3 4 5 6 5 5 5 5 5 5 5 4 4 3
6 6 4 2 3 3 3 3 3 3 3 5 4 2 2 2 1 2 2 2 3 4 3 1 1 3 3 3 1 3 4 4 4 5 5 5 6 6 5 5 5 4 4 4
1 4 3 2 1 1 1 2 2 3 4 5 4 3 2 2 2 2 2 2 2 3 2 1 1 0 2 1 2 3 3 3 3 4 5 5 5 5 5 6 6 6 5 6
1 3 2 3 2 1 2 3 4 4 3 3 4 3 2 1 0 0 1 1 1 2 1 1 2 2 1 1 2 2 2 2 3 4 5 5 4 4 6 6 7 7 7 6
5 6 4 4 3 1 3 3 3 3 2 1 3 3 2 1 1 1 1 1 1 1 1 1 2 2 2 1 1 2 2 2 2 3 4 4 4 3 4 5 6 8 8 8
4 3 3 3 2 1 3 3 2 3 3 2 2 3 3 2 1 1 0 1 0 1 1 1 1 2 2 1 0 2 3 2 2 2 3 4 4 5 4 3 3 5 7 7
2 2 1 1 1 1 2 2 2 2 1 1 1 1 2 1 1 1 1 1 1 0 1 1 1 1 2 1 0 1 1 2 2 2 3 4 4 4 4 4 4 3 3 5
1 1 3 2 1 0 1 2 2 1 0 0 1 2 3 3 2 1 1 0 1 0 1 1 1 2 2 1 1 1 1 2 2 2 2 3 3 4 4 5 4 3 2 2
1 1 1 2 2 2 2 2 2 2 2 2 2 2 3 3 2 1 1 0 0 1 2 2 2 3 2 1 0 1 1 2 2 2 2 2 3 3 4 4 4 4 4 3
1 1 1 2 2 2 2 2 3 3 2 2 3 2 2 2 1 0 1 1 1 2 2 3 3 3 2 1 1 1 2 2 2 2 2 3 3 3 3 4 4 4 4 4
4 5 4 4 3 2 2 2 2 2 2 2 2 3 3 2 1 2 2 1 1 1 2 3 3 3 2 2 2 2 2 2 2 2 2 3 3 3 3 3 4 4 3 3
1 2 2 2 2 3 2 2 2 2 2 2 3 3 2 2 2 2 1 1 2 3 4 3 3 2 2 2 1 1 1 1 1 1 2 2 2 2 2 3 3 3 3 2
1 1 1 1 1 2 2 1 1 2 2 2 3 2 1 1 2 1 1 2 3 4 3 3 2 2 2 1 1 1 1 1 1 1 1 1 2 2 2 2 3 3 3 3
2 2 2 1 1 1 1 2 2 3 2 2 3 3 2 2 1 0 0 2 4 3 3 2 2 1 1 1 0 1 1 1 1 1 1 1 1 1 1 2 2 3 3 3
1 1 1 1 1 1 1 1 2 3 2 2 2 2 1 1 0 1 2 3 4 3 2 1 1 1 0 0 0 1 1 1 0 0 0 1 1 1 1 2 2 2 2 2
0 1 0 0 1 0 1 0 1 2 2 2 2 2 2 2 2 2 2 2 2 2 1 1 0 1 1 1 1 1 1 1 0 0 0 0 1 1 1 2 2 2 2 2
1 0 0 0 1 1 0 1 1 0 1 1 1 2 2 1 0 1 1 1 0 1 1 2 2 2 1 1 1 1 0 0 0 0 0 0 1 1 1 1 2 2 2 2
1 1 0 1 2 1 1 0 2 2 2 1 1 1 1 1 1 1 0 1 1 2 2 3 3 3 2 2 1 1 1 1 0 0 0 0 1 1 1 1 1 1 1 1
1 1 0 1 1 1 1 2 2 2 1 1 2 2 2 2 2 1 2 2 3 3 2 2 3 3 2 2 2 1 1 1 1 1 1 1 1 1 1 1 1 1 1 1
2 2 2 3 3 2 2 3 2 2 2 2 1 2 2 2 3 3 3 3 3 3 3 3 3 3 3 2 2 1 1 1 0 0 0 1 0 0 0 1 0 0 1 1
Wind_Direction
204 210 180 186 189 174 175 178 179 212 219 242 232 217 211 199 174 166 178 181 182 180 181 175 173 185 187 186 182 176 180 190 197 193 187 182 179 175 173 173 176 174 174 177
163 212 185 198 229 189 192 183 195 204 248 254 245 184 179 177 163 174 188 196 194 180 177 182 187 187 181 185 180 172 184 194 190 182 182 182 182 174 170 173 175 173 181 182
197 268 98 250 231 199 194 194 177 201 230 233 205 196 191 186 173 182 191 183 188 200 197 196 193 187 187 189 177 177 187 188 184 180 184 186 180 171 177 182 179 180 187 188
140 118 203 236 234 184 178 203 212 219 227 196 199 193 164 166 173 187 186 182 189 204 206 193 181 180 178 171 174 182 187 187 184 182 185 181 175 180 184 179 182 191 196 199
135 166 244 285 224 162 170 239 234 199 177 154 135 65 15 13 163 184 189 182 187 185 188 172 164 163 153 161 173 180 188 190 189 185 186 184 188 193 185 179 186 192 193 199
134 156 210 233 248 206 137 245 257 177 171 164 115 126 249 263 133 118 112 135 135 110 98 106 149 148 149 164 170 191 200 199 193 189 190 193 195 193 186 186 194 191 199 205
154 184 241 249 272 130 161 227 233 175 173 164 172 196 219 357 43 65 117 107 111 107 111 137 139 137 150 169 197 205 193 189 188 192 196 195 189 184 179 184 186 195 208 217
149 172 237 274 142 170 206 197 156 156 156 148 143 124 101 94 97 103 102 99 109 112 110 99 120 133 145 205 230 188 174 183 190 192 196 190 182 182 178 180 188 199 210 227
182 206 247 264 212 227 165 151 165 155 146 131 121 111 87 73 67 71 86 92 99 114 109 75 120 145 176 232 210 169 180 190 198 191 191 189 191 189 186 188 197 206 212 224
206 269 280 303 314 15 130 154 157 136 132 124 126 127 100 77 57 51 59 82 93 103 107 65 360 198 199 218 174 168 184 196 201 201 199 197 195 193 194 198 202 206 214 224
225 262 322 335 336 7 67 81 87 89 104 127 135 142 142 120 6 55 47 26 77 120 127 353 342 343 2 85 142 154 175 189 197 207 207 202 201 202 207 214 209 206 213 214
219 224 199 240 263 190 115 108 121 115 97 109 149 165 154 170 286 315 50 51 35 26 49 19 340 330 323 34 132 165 184 208 213 213 209 205 207 225 229 225 224 218 213 209
222 225 209 231 254 153 133 137 132 135 157 178 195 168 162 187 234 282 55 84 79 336 353 324 307 316 321 333 192 195 203 213 214 212 212 212 212 216 230 243 229 222 220 213
206 118 94 201 205 196 140 132 104 78 102 182 199 168 154 169 190 192 247 236 188 192 273 266 298 307 308 312 259 240 234 228 220 219 220 215 218 221 220 217 228 245 232 219
263 178 186 190 196 188 131 111 96 77 279 259 183 173 169 171 183 208 265 330 86 31 311 329 329 303 304 288 240 251 253 254 241 229 229 225 223 220 219 216 217 227 238 236
333 31 144 152 189 198 165 152 172 224 219 193 183 189 177 167 166 166 325 13 146 269 289 287 274 276 288 301 291 268 256 248 236 221 228 227 222 220 218 214 210 208 216 225
170 238 216 220 235 238 215 205 208 220 210 193 197 182 146 128 112 291 291 278 225 250 263 265 267 270 254 225 221 239 242 242 228 220 219 219 221 221 219 218 217 212 221 216
206 215 219 216 220 228 227 202 192 193 195 198 168 140 140 151 206 261 277 289 303 308 290 274 268 258 248 240 225 225 226 234 231 226 227 224 222 214 212 218 222 223 224 212
220 222 236 235 208 184 192 210 204 189 174 150 144 155 169 190 218 251 270 305 295 294 293 285 274 267 261 253 232 217 221 226 237 245 239 217 216 214 212 223 229 230 225 219
47 37 53 35 84 131 151 177 174 161 169 154 146 149 173 221 222 242 304 299 284 278 284 288 283 278 275 264 236 189 199 221 233 251 261 240 224 229 224 229 236 239 235 232
65 60 65 58 34 44 151 161 162 162 171 153 151 175 199 229 233 206 317 303 302 301 301 290 287 282 286 267 180 164 173 212 229 234 246 255 240 235 238 243 248 246 240 235
48 60 54 78 82 12 349 101 151 157 163 163 171 184 170 180 268 317 283 266 284 302 315 303 283 270 80 125 120 134 143 159 208 242 261 247 232 229 242 253 254 257 255 246
15 37 13 79 131 318 335 308 184 168 180 191 197 199 198 209 206 194 267 283 295 320 344 332 261 101 99 81 83 107 127 140 182 248 257 255 259 256 259 265 264 262 262 253
359 352 301 43 103 103 19 307 298 196 197 209 207 201 184 179 309 273 236 267 345 26 30 36 70 88 89 59 70 87 121 128 121 308 284 296 290 277 261 266 271 268 259 248
319 314 20 126 135 166 188 93 67 65 66 61 45 38 51 141 167 278 5 82 86 69 45 36 45 59 68 70 81 84 85 90 90 106 249 278 274 269 263 252 245 252 255 247
9 44 86 149 161 151 129 100 86 69 69 58 28 27 39 43 54 56 61 69 68 59 41 32 40 46 53 61 65 69 73 66 47 18 338 310 285 275 270 268 253 237 232 233
47 54 58 52 51 67 80 86 92 81 80 94 63 31 44 48 51 53 58 62 61 55 49 46 50 56 57 53 51 49 51 48 24 349 340 339 342 318 291 270 222 174 170 175
Height
1481 1478 1479 1480 1481 1485 1488 1493 1500 1495 1493 1481 1477 1476 1476 1477 1478 1480 1482 1484 1486 1488 1491 1493 1496 1499 1502 1504 1506 1508 1511 1513 1515 1517 1519 1520 1522 1523 1524 1525 1526 1527 1527 1527
1480 1477 1478 1480 1479 1480 1481 1484 1486 1486 1486 1474 1473 1474 1475 1477 1478 1479 1480 1482 1484 1486 1489 1491 1493 1496 1499 1502 1504 1506 1508 1510 1512 1514 1516 1517 1518 1519 1520 1522 1523 1524 1524 1524
1489 1482 1480 1489 1479 1478 1479 1478 1480 1484 1479 1473 1473 1472 1472 1474 1476 1478 1479 1481 1483 1485 1486 1488 1491 1493 1497 1500 1502 1504 1506 1507 1509 1511 1513 1514 1515 1516 1518 1519 1520 1520 1521 1521
1492 1489 1498 1483 1470 1471 1473 1474 1474 1473 1471 1471 1471 1470 1471 1473 1475 1476 1478 1479 1481 1483 1485 1486 1489 1492 1495 1498 1499 1501 1502 1504 1506 1508 1509 1511 1512 1513 1514 1515 1516 1517 1517 1518
1496 1496 1490 1476 1469 1470 1474 1475 1471 1471 1470 1471 1471 1471 1472 1473 1475 1476 1477 1479 1480 1482 1484 1485 1487 1490 1492 1495 1497 1498 1499 1501 1503 1505 1506 1507 1508 1509 1510 1512 1513 1513 1514 1515
1493 1493 1495 1477 1465 1465 1470 1477 1468 1468 1469 1470 1470 1476 1474 1473 1474 1475 1476 1478 1480 1481 1483 1485 1486 1488 1490 1491 1493 1494 1496 1498 1500 1501 1503 1504 1505 1506 1507 1508 1509 1510 1511 1511
1489 1488 1482 1468 1464 1465 1480 1476 1466 1465 1466 1468 1469 1472 1473 1473 1473 1475 1476 1477 1478 1480 1482 1483 1485 1486 1488 1489 1490 1492 1494 1496 1497 1498 1499 1500 1501 1503 1504 1505 1506 1506 1507 1508
1488 1488 1483 1463 1463 1467 1467 1462 1463 1464 1466 1467 1469 1470 1472 1473 1474 1475 1475 1476 1477 1478 1480 1482 1484 1484 1485 1487 1488 1490 1491 1492 1493 1495 1496 1497 1498 1499 1500 1501 1502 1502 1503 1503
1476 1476 1465 1462 1461 1461 1461 1461 1462 1464 1466 1467 1469 1471 1472 1472 1474 1475 1475 1476 1476 1478 1480 1481 1482 1483 1484 1485 1486 1487 1488 1489 1490 1491 1492 1493 1494 1495 1496 1497 1498 1498 1499 1499
1470 1466 1462 1461 1460 1460 1460 1461 1463 1464 1466 1467 1469 1470 1472 1472 1473 1474 1475 1476 1476 1477 1478 1479 1480 1481 1481 1482 1483 1484 1485 1485 1487 1487 1488 1489 1490 1491 1491 1492 1493 1494 1495 1495
1467 1464 1462 1460 1460 1461 1461 1462 1463 1465 1467 1468 1468 1470 1471 1472 1473 1473 1474 1475 1476 1476 1476 1476 1477 1478 1480 1480 1481 1481 1481 1481 1482 1483 1484 1484 1485 1486 1487 1488 1489 1489 1490 1490
1464 1460 1461 1460 1460 1461 1461 1462 1464 1465 1466 1468 1469 1469 1470 1471 1472 1472 1472 1473 1474 1474 1474 1474 1475 1476 1476 1476 1477 1477 1477 1478 1478 1479 1480 1480 1481 1482 1482 1483 1484 1485 1485 1486
1457 1457 1458 1458 1460 1461 1461 1462 1463 1465 1466 1467 1468 1469 1469 1470 1471 1471 1471 1472 1472 1472 1471 1472 1472 1473 1473 1473 1474 1474 1474 1474 1475 1475 1476 1476 1477 1477 1477 1478 1479 1480 1481 1481
1456 1457 1457 1458 1459 1460 1461 1462 1463 1464 1466 1466 1467 1467 1467 1468 1468 1468 1469 1469 1469 1469 1469 1469 1469 1469 1469 1469 1470 1470 1470 1471 1471 1471 1471 1472 1472 1473 1473 1474 1474 1475 1476 1477
1456 1456 1457 1458 1459 1460 1461 1461 1462 1463 1464 1464 1465 1465 1465 1465 1466 1466 1466 1466 1466 1466 1466 1465 1465 1465 1466 1466 1466 1466 1466 1466 1467 1467 1468 1468 1468 1469 1469 1470 1470 1471 1471 1472
1455 1455 1456 1456 1457 1458 1459 1460 1460 1461 1462 1462 1462 1463 1463 1463 1463 1463 1463 1463 1463 1462 1462 1462 1461 1462 1462 1462 1462 1462 1462 1463 1463 1463 1464 1464 1464 1464 1465 1466 1466 1466 1467 1468
1453 1454 1454 1455 1455 1456 1457 1458 1458 1459 1459 1459 1460 1460 1460 1460 1460 1460 1460 1460 1460 1459 1458 1458 1457 1457 1458 1458 1458 1458 1458 1459 1459 1460 1460 1460 1461 1461 1461 1462 1462 1461 1462 1463
1452 1452 1453 1453 1454 1454 1455 1455 1456 1456 1456 1457 1457 1457 1457 1458 1458 1458 1458 1457 1456 1455 1455 1454 1454 1454 1454 1454 1455 1455 1455 1455 1455 1456 1456 1457 1457 1457 1457 1458 1458 1458 1458 1459
1450 1451 1451 1452 1452 1452 1453 1453 1454 1454 1454 1455 1455 1455 1455 1455 1455 1455 1455 1454 1453 1451 1451 1451 1451 1451 1450 1451 1451 1451 1451 1452 1452 1452 1453 1453 1453 1453 1453 1453 1454 1454 1454 1454
1448 1449 1449 1449 1450 1450 1451 1451 1452 1452 1453 1453 1452 1452 1452 1452 1452 1452 1451 1451 1450 1449 1448 1448 1448 1447 1447 1447 1448 1448 1448 1449 1449 1449 1449 1449 1449 1450 1449 1449 1450 1450 1450 1450
1446 1447 1447 1448 1448 1448 1449 1449 1449 1450 1450 1450 1450 1450 1450 1449 1449 1449 1448 1448 1448 1447 1446 1446 1445 1444 1444 1444 1445 1445 1446 1446 1447 1447 1447 1447 1446 1446 1446 1446 1446 1447 1447 1447
1445 1445 1446 1446 1446 1446 1447 1447 1446 1446 1447 1448 1448 1448 1446 1446 1447 1447 1447 1447 1447 1446 1445 1443 1443 1442 1442 1443 1443 1443 1444 1444 1445 1445 1444 1444 1444 1443 1443 1443 1444 1444 1443 1443
1443 1444 1444 1444 1444 1445 1445 1445 1445 1445 1445 1445 1445 1445 1445 1445 1445 1445 1445 1446 1445 1444 1443 1442 1441 1440 1441 1441 1441 1442 1442 1442 1442 1442 1442 1442 1442 1441 1441 1441 1441 1441 1440 1440
1442 1443 1443 1443 1443 1444 1443 1443 1443 1444 1444 1444 1444 1444 1444 1443 1443 1443 1444 1444 1444 1443 1441 1440 1440 1440 1440 1440 1440 1440 1440 1440 1440 1440 1440 1440 1439 1439 1439 1439 1439 1438 1438 1438
1442 1442 1442 1442 1442 1442 1442 1442 1442 1443 1443 1443 1443 1443 1443 1443 1443 1443 1444 1443 1443 1442 1441 1440 1439 1438 1438 1438 1438 1438 1438 1438 1438 1438 1438 1438 1438 1437 1437 1437 1437 1436 1436 1435
1441 1441 1441 1441 1441 1441 1442 1442 1442 1443 1443 1443 1443 1443 1443 1443 1443 1443 1443 1443 1442 1442 1441 1440 1439 1438 1438 1437 1437 1437 1437 1437 1437 1437 1436 1436 1436 1435 1435 1435 1434 1433 1433 1433
1442 1441 1441 1441 1441 1442 1442 1443 1443 1443 1444 1444 1444 1444 1444 1444 1444 1444 1443 1443 1442 1442 1441 1440 1440 1439 1438 1437 1437 1436 1436 1436 1435 1435 1434 1434 1433 1433 1432 1432 1432 1431 1431 1431